Time,TemperatureF,DewpointF,PressureIn,WindDirection,WindDirectionDegrees,WindSpeedMPH,WindSpeedGustMPH,Humidity,HourlyPrecipIn,Conditions,Clouds,dailyrainin,SoftwareType,DateUTC
2013-02-20 00:01:00,45.0,29.0,30.22,North,354,2.0,5.0,54,0.00,,,0.88,,2013-02-20 06:01:00,
2013-02-20 00:11:00,45.0,29.0,30.22,North,354,2.0,5.0,54,0.00,,,0.88,,2013-02-20 06:11:00,
2013-02-20 00:21:00,45.0,29.0,30.22,NNE,33,1.0,5.0,54,0.00,,,0.88,,2013-02-20 06:21:00,
2013-02-20 00:31:00,45.0,29.0,30.23,NNE,12,4.0,8.0,53,0.00,,,0.87,,2013-02-20 06:31:00,
2013-02-20 00:42:00,45.0,29.0,30.23,NNE,12,4.0,8.0,53,0.00,,,0.87,,2013-02-20 06:42:00,
2013-02-20 00:52:00,44.0,28.0,30.23,NNW,328,4.0,9.0,54,0.00,,,0.87,,2013-02-20 06:52:00,
2013-02-20 01:01:00,44.0,28.0,30.24,NW,314,2.0,8.0,54,0.00,,,0.87,,2013-02-20 07:01:00,
2013-02-20 01:11:00,44.0,28.0,30.24,NW,314,2.0,8.0,54,0.00,,,0.87,,2013-02-20 07:11:00,
2013-02-20 01:21:00,43.0,28.0,30.24,NNW,333,3.0,7.0,55,0.00,,,0.87,,2013-02-20 07:21:00,
2013-02-20 01:31:00,43.0,29.0,30.24,NNW,338,2.0,5.0,57,0.00,,,0.82,,2013-02-20 07:31:00,
2013-02-20 01:41:00,43.0,29.0,30.24,NNW,338,2.0,5.0,57,0.00,,,0.82,,2013-02-20 07:41:00,
2013-02-20 01:52:00,42.0,28.0,30.24,NW,317,2.0,6.0,58,0.00,,,0.82,,2013-02-20 07:52:00,
2013-02-20 02:05:00,42.0,28.0,30.25,North,1,2.0,4.0,58,0.00,,,0.82,,2013-02-20 08:05:00,
2013-02-20 02:11:00,42.0,28.0,30.25,North,1,2.0,4.0,58,0.00,,,0.82,,2013-02-20 08:11:00,
2013-02-20 02:21:00,41.0,28.0,30.24,NNW,339,2.0,4.0,60,0.00,,,0.82,,2013-02-20 08:21:00,
2013-02-20 02:31:00,41.0,28.0,30.23,NNE,21,1.0,3.0,60,0.00,,,0.82,,2013-02-20 08:31:00,
2013-02-20 02:41:00,41.0,28.0,30.23,NNE,21,1.0,3.0,60,0.00,,,0.82,,2013-02-20 08:41:00,
2013-02-20 02:52:00,40.0,28.0,30.22,NE,40,1.0,3.0,62,0.00,,,0.82,,2013-02-20 08:52:00,
2013-02-20 03:01:00,40.0,29.0,30.23,North,4,1.0,3.0,64,0.00,,,0.82,,2013-02-20 09:01:00,
2013-02-20 03:11:00,40.0,29.0,30.23,North,4,1.0,3.0,64,0.00,,,0.82,,2013-02-20 09:11:00,
2013-02-20 03:21:00,39.0,28.0,30.23,North,4,1.0,4.0,65,0.00,,,0.82,,2013-02-20 09:21:00,
2013-02-20 03:31:00,39.0,27.0,30.22,NE,39,2.0,6.0,63,0.00,,,0.72,,2013-02-20 09:31:00,
2013-02-20 03:42:00,39.0,27.0,30.22,NE,39,2.0,6.0,63,0.00,,,0.72,,2013-02-20 09:42:00,
2013-02-20 03:52:00,39.0,28.0,30.22,ENE,63,1.0,6.0,65,0.00,,,0.72,,2013-02-20 09:52:00,
2013-02-20 04:01:00,39.0,28.0,30.22,NW,311,3.0,7.0,64,0.00,,,0.72,,2013-02-20 10:01:00,
2013-02-20 04:12:00,39.0,28.0,30.22,NW,311,3.0,7.0,64,0.00,,,0.72,,2013-02-20 10:12:00,
2013-02-20 04:22:00,39.0,27.0,30.22,NNW,338,3.0,6.0,63,0.00,,,0.72,,2013-02-20 10:22:00,
2013-02-20 04:31:00,39.0,27.0,30.22,North,356,2.0,8.0,63,0.00,,,0.21,,2013-02-20 10:31:00,
2013-02-20 04:42:00,39.0,27.0,30.22,North,356,2.0,8.0,63,0.00,,,0.21,,2013-02-20 10:42:00,
2013-02-20 04:52:00,38.0,28.0,30.22,ENE,67,1.0,3.0,67,0.00,,,0.21,,2013-02-20 10:52:00,
2013-02-20 05:02:00,38.0,28.0,30.21,East,80,0.0,1.0,67,0.00,,,0.21,,2013-02-20 11:02:00,
2013-02-20 05:11:00,38.0,28.0,30.20,ENE,60,1.0,2.0,66,0.00,,,0.21,,2013-02-20 11:11:00,
2013-02-20 05:21:00,38.0,28.0,30.20,ENE,60,1.0,2.0,66,0.00,,,0.21,,2013-02-20 11:21:00,
2013-02-20 05:32:00,39.0,28.0,30.20,West,275,1.0,4.0,65,0.00,,,0.00,,2013-02-20 11:32:00,
2013-02-20 05:42:00,39.0,28.0,30.20,West,275,1.0,4.0,65,0.00,,,0.00,,2013-02-20 11:42:00,
2013-02-20 05:52:00,39.0,29.0,30.19,ENE,72,1.0,3.0,66,0.00,,,0.00,,2013-02-20 11:52:00,
2013-02-20 06:01:00,40.0,29.0,30.19,NW,304,1.0,3.0,64,0.00,,,0.00,,2013-02-20 12:01:00,
2013-02-20 06:12:00,40.0,29.0,30.19,NW,304,1.0,3.0,64,0.00,,,0.00,,2013-02-20 12:12:00,
2013-02-20 06:21:00,40.0,29.0,30.19,ENE,68,1.0,6.0,64,0.00,,,0.00,,2013-02-20 12:21:00,
2013-02-20 06:32:00,40.0,29.0,30.20,East,101,1.0,4.0,65,0.00,,,0.00,,2013-02-20 12:32:00,
2013-02-20 06:42:00,40.0,29.0,30.20,East,101,1.0,4.0,65,0.00,,,0.00,,2013-02-20 12:42:00,
2013-02-20 06:53:00,40.0,30.0,30.21,West,271,1.0,3.0,66,0.00,,,0.00,,2013-02-20 12:53:00,
2013-02-20 07:01:00,40.0,30.0,30.21,ENE,59,0.0,1.0,67,0.00,,,0.00,,2013-02-20 13:01:00,
2013-02-20 07:11:00,40.0,30.0,30.21,ENE,59,0.0,1.0,67,0.00,,,0.00,,2013-02-20 13:11:00,
2013-02-20 07:22:00,40.0,28.0,30.22,NNE,20,2.0,6.0,63,0.00,,,0.00,,2013-02-20 13:22:00,
2013-02-20 07:31:00,41.0,29.0,30.24,East,82,1.0,4.0,61,0.00,,,0.00,,2013-02-20 13:31:00,
2013-02-20 07:42:00,41.0,29.0,30.24,East,82,1.0,4.0,61,0.00,,,0.00,,2013-02-20 13:42:00,
2013-02-20 07:52:00,42.0,28.0,30.25,ENE,74,1.0,2.0,57,0.00,,,0.00,,2013-02-20 13:52:00,
2013-02-20 08:01:00,43.0,28.0,30.26,East,86,0.0,2.0,56,0.00,,,0.00,,2013-02-20 14:01:00,
2013-02-20 08:11:00,43.0,28.0,30.26,East,86,0.0,2.0,56,0.00,,,0.00,,2013-02-20 14:11:00,
2013-02-20 08:21:00,43.0,29.0,30.26,East,79,2.0,4.0,57,0.00,,,0.00,,2013-02-20 14:21:00,
2013-02-20 08:32:00,43.0,29.0,30.26,ENE,72,1.0,1.0,58,0.00,,,0.00,,2013-02-20 14:32:00,
2013-02-20 08:42:00,43.0,29.0,30.26,ENE,72,1.0,1.0,58,0.00,,,0.00,,2013-02-20 14:42:00,
2013-02-20 08:52:00,43.0,29.0,30.26,ENE,62,1.0,3.0,58,0.00,,,0.00,,2013-02-20 14:52:00,
2013-02-20 09:01:00,44.0,29.0,30.27,North,11,1.0,4.0,56,0.00,,,0.00,,2013-02-20 15:01:00,
2013-02-20 09:11:00,44.0,29.0,30.27,North,11,1.0,4.0,56,0.00,,,0.00,,2013-02-20 15:11:00,
2013-02-20 09:22:00,45.0,29.0,30.28,NW,315,0.0,3.0,54,0.00,,,0.00,,2013-02-20 15:22:00,
2013-02-20 09:32:00,45.0,27.0,30.28,NNE,26,1.0,3.0,50,0.00,,,0.00,,2013-02-20 15:32:00,
2013-02-20 09:42:00,45.0,27.0,30.28,NNE,26,1.0,3.0,50,0.00,,,0.00,,2013-02-20 15:42:00,
2013-02-20 09:52:00,46.0,29.0,30.28,NE,41,1.0,4.0,51,0.00,,,0.00,,2013-02-20 15:52:00,
2013-02-20 10:01:00,47.0,27.0,30.27,NNW,332,2.0,6.0,46,0.00,,,0.00,,2013-02-20 16:01:00,
2013-02-20 10:12:00,47.0,27.0,30.27,NNW,332,2.0,6.0,46,0.00,,,0.00,,2013-02-20 16:12:00,
2013-02-20 10:21:00,48.0,27.0,30.26,ENE,75,2.0,4.0,44,0.00,,,0.00,,2013-02-20 16:21:00,
2013-02-20 10:32:00,48.0,26.0,30.26,North,354,3.0,9.0,42,0.00,,,0.00,,2013-02-20 16:32:00,
2013-02-20 10:42:00,48.0,26.0,30.26,North,354,3.0,9.0,42,0.00,,,0.00,,2013-02-20 16:42:00,
2013-02-20 10:52:00,49.0,26.0,30.25,ENE,77,4.0,8.0,40,0.00,,,0.00,,2013-02-20 16:52:00,
2013-02-20 11:01:00,51.0,26.0,30.25,ENE,62,2.0,6.0,37,0.00,,,0.00,,2013-02-20 17:01:00,
2013-02-20 11:11:00,51.0,24.0,30.25,ENE,70,3.0,6.0,34,0.00,,,0.00,,2013-02-20 17:11:00,
2013-02-20 11:21:00,51.0,24.0,30.25,ENE,70,3.0,6.0,34,0.00,,,0.00,,2013-02-20 17:21:00,
2013-02-20 11:32:00,52.0,22.0,30.25,NNE,18,2.0,5.0,30,0.00,,,0.00,,2013-02-20 17:32:00,
2013-02-20 11:42:00,52.0,22.0,30.25,NNE,18,2.0,5.0,30,0.00,,,0.00,,2013-02-20 17:42:00,
2013-02-20 11:52:00,54.0,22.0,30.25,East,79,1.0,7.0,29,0.00,,,0.00,,2013-02-20 17:52:00,
2013-02-20 12:02:00,54.0,22.0,30.24,East,83,4.0,6.0,29,0.00,,,0.00,,2013-02-20 18:02:00,
2013-02-20 12:11:00,54.0,22.0,30.24,East,83,4.0,6.0,29,0.00,,,0.00,,2013-02-20 18:11:00,
2013-02-20 12:21:00,55.0,24.0,30.22,ESE,103,2.0,5.0,30,0.00,,,0.00,,2013-02-20 18:21:00,
2013-02-20 12:32:00,55.0,24.0,30.20,East,100,3.0,7.0,30,0.00,,,0.00,,2013-02-20 18:32:00,
2013-02-20 12:42:00,55.0,24.0,30.20,East,100,3.0,7.0,30,0.00,,,0.00,,2013-02-20 18:42:00,
2013-02-20 12:52:00,56.0,23.0,30.20,NE,56,3.0,5.0,28,0.00,,,0.00,,2013-02-20 18:52:00,
2013-02-20 13:01:00,56.0,25.0,30.19,East,82,2.0,4.0,30,0.00,,,0.00,,2013-02-20 19:01:00,
2013-02-20 13:11:00,56.0,25.0,30.19,East,82,2.0,4.0,30,0.00,,,0.00,,2013-02-20 19:11:00,
2013-02-20 13:21:00,57.0,26.0,30.16,ESE,118,3.0,7.0,30,0.00,,,0.00,,2013-02-20 19:21:00,
2013-02-20 13:31:00,56.0,24.0,30.16,NE,40,3.0,5.0,29,0.00,,,0.00,,2013-02-20 19:31:00,
2013-02-20 13:41:00,56.0,24.0,30.16,NE,40,3.0,5.0,29,0.00,,,0.00,,2013-02-20 19:41:00,
2013-02-20 13:52:00,57.0,27.0,30.16,East,92,2.0,5.0,31,0.00,,,0.00,,2013-02-20 19:52:00,
2013-02-20 14:01:00,59.0,28.0,30.14,NE,44,1.0,5.0,31,0.00,,,0.00,,2013-02-20 20:01:00,
2013-02-20 14:11:00,58.0,28.0,30.14,NE,56,2.0,7.0,32,0.00,,,0.00,,2013-02-20 20:11:00,
2013-02-20 14:21:00,58.0,28.0,30.14,NE,56,2.0,7.0,32,0.00,,,0.00,,2013-02-20 20:21:00,
2013-02-20 14:31:00,60.0,28.0,30.14,ENE,58,1.0,4.0,30,0.00,,,0.00,,2013-02-20 20:31:00,
2013-02-20 14:41:00,60.0,28.0,30.14,ENE,58,1.0,4.0,30,0.00,,,0.00,,2013-02-20 20:41:00,
2013-02-20 14:52:00,58.0,27.0,30.13,NW,322,5.0,9.0,30,0.00,,,0.00,,2013-02-20 20:52:00,
2013-02-20 15:01:00,60.0,28.0,30.13,NNE,20,2.0,7.0,29,0.00,,,0.00,,2013-02-20 21:01:00,
2013-02-20 15:11:00,60.0,28.0,30.13,NNE,20,2.0,7.0,29,0.00,,,0.00,,2013-02-20 21:11:00,
2013-02-20 15:21:00,59.0,27.0,30.12,East,82,4.0,6.0,29,0.00,,,0.00,,2013-02-20 21:21:00,
2013-02-20 15:31:00,59.0,26.0,30.12,ESE,103,3.0,4.0,28,0.00,,,0.00,,2013-02-20 21:31:00,
2013-02-20 15:42:00,59.0,26.0,30.12,ESE,103,3.0,4.0,28,0.00,,,0.00,,2013-02-20 21:42:00,
2013-02-20 15:52:00,60.0,29.0,30.11,ENE,68,2.0,5.0,31,0.00,,,0.00,,2013-02-20 21:52:00,
2013-02-20 16:01:00,60.0,28.0,30.11,NNE,20,1.0,5.0,29,0.00,,,0.00,,2013-02-20 22:01:00,
2013-02-20 16:11:00,60.0,28.0,30.11,NNE,20,1.0,5.0,29,0.00,,,0.00,,2013-02-20 22:11:00,
2013-02-20 16:21:00,59.0,26.0,30.12,NE,52,2.0,5.0,28,0.00,,,0.00,,2013-02-20 22:21:00,
2013-02-20 16:31:00,60.0,28.0,30.13,NNE,29,1.0,3.0,30,0.00,,,0.00,,2013-02-20 22:31:00,
2013-02-20 16:42:00,60.0,28.0,30.13,NNE,29,1.0,3.0,30,0.00,,,0.00,,2013-02-20 22:42:00,
2013-02-20 16:52:00,58.0,29.0,30.12,ENE,75,1.0,4.0,33,0.00,,,0.00,,2013-02-20 22:52:00,
2013-02-20 17:01:00,56.0,29.0,30.13,North,8,0.0,5.0,36,0.00,,,0.00,,2013-02-20 23:01:00,
2013-02-20 17:12:00,56.0,29.0,30.13,North,8,0.0,5.0,36,0.00,,,0.00,,2013-02-20 23:12:00,
2013-02-20 17:22:00,56.0,27.0,30.14,ENE,62,0.0,2.0,33,0.00,,,0.00,,2013-02-20 23:22:00,
2013-02-20 17:31:00,55.0,28.0,30.14,NNE,32,0.0,1.0,35,0.00,,,0.00,,2013-02-20 23:31:00,
2013-02-20 17:42:00,55.0,28.0,30.14,NNE,32,0.0,1.0,35,0.00,,,0.00,,2013-02-20 23:42:00,
2013-02-20 18:02:00,52.0,29.0,30.14,NNE,32,0.0,0.0,41,0.00,,,0.00,,2013-02-21 00:02:00,
2013-02-20 18:11:00,52.0,29.0,30.14,NNE,32,0.0,0.0,41,0.00,,,0.00,,2013-02-21 00:11:00,
2013-02-20 18:21:00,50.0,32.0,30.14,NNE,32,0.0,0.0,49,0.00,,,0.00,,2013-02-21 00:21:00,
2013-02-20 18:32:00,49.0,30.0,30.13,NNE,32,0.0,0.0,48,0.00,,,0.00,,2013-02-21 00:32:00,
2013-02-20 18:42:00,49.0,30.0,30.13,NNE,32,0.0,0.0,48,0.00,,,0.00,,2013-02-21 00:42:00,
2013-02-20 18:52:00,47.0,33.0,30.14,NNE,32,0.0,0.0,59,0.00,,,0.00,,2013-02-21 00:52:00,
2013-02-20 19:01:00,45.0,34.0,30.14,NNE,31,0.0,0.0,64,0.00,,,0.00,,2013-02-21 01:01:00,
2013-02-20 19:11:00,45.0,34.0,30.14,NNE,31,0.0,0.0,64,0.00,,,0.00,,2013-02-21 01:11:00,
2013-02-20 19:21:00,45.0,34.0,30.14,NNE,31,0.0,0.0,65,0.00,,,0.00,,2013-02-21 01:21:00,
2013-02-20 19:32:00,45.0,32.0,30.14,NNE,32,0.0,0.0,59,0.00,,,0.00,,2013-02-21 01:32:00,
2013-02-20 19:42:00,45.0,32.0,30.14,NNE,32,0.0,0.0,59,0.00,,,0.00,,2013-02-21 01:42:00,
2013-02-20 19:52:00,43.0,33.0,30.14,NNE,31,0.0,0.0,68,0.00,,,0.00,,2013-02-21 01:52:00,
2013-02-20 20:01:00,42.0,35.0,30.13,NNE,32,0.0,0.0,75,0.00,,,0.00,,2013-02-21 02:01:00,
2013-02-20 20:11:00,42.0,35.0,30.13,NNE,32,0.0,0.0,75,0.00,,,0.00,,2013-02-21 02:11:00,
2013-02-20 20:21:00,41.0,33.0,30.14,NNE,32,0.0,0.0,74,0.00,,,0.00,,2013-02-21 02:21:00,
2013-02-20 20:32:00,41.0,32.0,30.14,NNE,32,0.0,0.0,71,0.00,,,0.00,,2013-02-21 02:32:00,
2013-02-20 20:42:00,41.0,32.0,30.14,NNE,32,0.0,0.0,71,0.00,,,0.00,,2013-02-21 02:42:00,
2013-02-20 20:52:00,41.0,32.0,30.14,NNE,32,0.0,0.0,71,0.00,,,0.00,,2013-02-21 02:52:00,
2013-02-20 21:01:00,41.0,31.0,30.13,NNE,22,0.0,1.0,66,0.00,,,0.00,,2013-02-21 03:01:00,
2013-02-20 21:12:00,41.0,31.0,30.13,NNE,22,0.0,1.0,66,0.00,,,0.00,,2013-02-21 03:12:00,
2013-02-20 21:21:00,42.0,30.0,30.14,NNE,21,0.0,1.0,63,0.00,,,0.00,,2013-02-21 03:21:00,
2013-02-20 21:32:00,43.0,32.0,30.13,NNE,21,0.0,1.0,64,0.00,,,0.00,,2013-02-21 03:32:00,
2013-02-20 21:41:00,43.0,32.0,30.13,NNE,21,0.0,1.0,64,0.00,,,0.00,,2013-02-21 03:41:00,
2013-02-20 21:52:00,43.0,32.0,30.13,NNE,21,0.0,0.0,66,0.00,,,0.00,,2013-02-21 03:52:00,
2013-02-20 22:01:00,42.0,32.0,30.13,NNE,21,0.0,0.0,67,0.00,,,0.00,,2013-02-21 04:01:00,
2013-02-20 22:11:00,42.0,32.0,30.13,NNE,21,0.0,0.0,67,0.00,,,0.00,,2013-02-21 04:11:00,
2013-02-20 22:22:00,42.0,32.0,30.12,NNE,22,0.0,0.0,67,0.00,,,0.00,,2013-02-21 04:22:00,
2013-02-20 22:32:00,43.0,32.0,30.12,SSW,213,0.0,1.0,64,0.00,,,0.00,,2013-02-21 04:32:00,
2013-02-20 22:42:00,43.0,32.0,30.12,SSW,213,0.0,1.0,64,0.00,,,0.00,,2013-02-21 04:42:00,
2013-02-20 22:52:00,42.0,31.0,30.11,SSW,198,0.0,0.0,66,0.00,,,0.00,,2013-02-21 04:52:00,
2013-02-20 23:02:00,42.0,31.0,30.11,East,101,0.0,1.0,65,0.00,,,0.00,,2013-02-21 05:02:00,
2013-02-20 23:12:00,42.0,31.0,30.11,East,101,0.0,1.0,65,0.00,,,0.00,,2013-02-21 05:12:00,
2013-02-20 23:22:00,42.0,31.0,30.11,East,101,0.0,0.0,65,0.00,,,0.00,,2013-02-21 05:22:00,
2013-02-20 23:34:00,41.0,31.0,30.11,East,100,0.0,0.0,68,0.00,,,0.00,,2013-02-21 05:34:00,
2013-02-20 23:43:00,41.0,31.0,30.11,East,100,0.0,0.0,68,0.00,,,0.00,,2013-02-21 05:43:00,
2013-02-20 23:59:00,41.0,32.0,30.10,East,100,0.0,0.0,70,0.00,,,0.00,,2013-02-21 05:59:00,